QTR75 OOMS-ORBI

Flight info

Callsign QTR75
Flight time 2h 21m
Altitude 32000
Route DCT GERAR B540 KUPMA/N0384F240 B540 MIVEK/N0454F340 P574 RUKOR N571 IVOXI M557 MITIX/N0464F400 M557 TUMAK L602 DAMUR/N0439F320 L934 ITEVO L602 RALKA G795 TASMI/N0365F220 L602 ALPET DCT LOVEK DCT
Aircraft A332/H-SDE3GHIJ2J3J5M1RVWXY/LB2D1

Departure

Time 2026-05-07 11:11
Airport Muscat International Airport (OOMS)

Arrival

Time 2026-05-07 13:32
Airport Baghdad International Airport / New Al Muthana Air Base (ORBI)
Time Latitude Longitude Altitude Speed Heading
2026-05-07 11:01 23.60170 58.28327 42 ft 0 kts 174°
2026-05-07 11:08 23.60201 58.28323 41 ft 0 kts 355°
2026-05-07 11:09 23.60499 58.26491 44 ft 0 kts 355°
2026-05-07 11:09 23.60509 58.26490 44 ft 3 kts 355°
2026-05-07 11:10 23.60545 58.26486 44 ft 7 kts 355°
2026-05-07 11:10 23.60607 58.26480 44 ft 10 kts 355°
2026-05-07 11:10 23.60645 58.26523 45 ft 9 kts 66°
2026-05-07 11:10 23.60661 58.26616 46 ft 24 kts 83°
2026-05-07 11:11 23.60703 58.27123 46 ft 117 kts 85°
2026-05-07 11:11 23.60778 58.28356 170 ft 202 kts 83°
2026-05-07 11:11 23.60934 58.30018 1047 ft 230 kts 82°
2026-05-07 11:11 23.61110 58.31739 2099 ft 231 kts 77°
2026-05-07 11:12 23.61579 58.33497 2591 ft 254 kts 61°
2026-05-07 11:12 23.62580 58.35120 3300 ft 260 kts 43°
2026-05-07 11:12 23.64000 58.36331 4134 ft 261 kts 26°
2026-05-07 11:12 23.65702 58.37005 4968 ft 263 kts
2026-05-07 11:13 23.67547 58.37059 5770 ft 268 kts 350°
2026-05-07 11:13 23.69339 58.36449 6572 ft 273 kts 332°
2026-05-07 11:13 23.70876 58.35215 7429 ft 278 kts 313°
2026-05-07 11:13 23.72080 58.33542 8287 ft 283 kts 303°
2026-05-07 11:14 23.73135 58.31704 9206 ft 289 kts 298°
2026-05-07 11:14 23.74111 58.29794 10089 ft 295 kts 297°
2026-05-07 11:14 23.75087 58.27800 10974 ft 301 kts 297°
2026-05-07 11:14 23.76084 58.25767 11871 ft 307 kts 298°
2026-05-07 11:15 23.77118 58.23699 12784 ft 313 kts 300°
2026-05-07 11:15 23.78191 58.21596 13591 ft 323 kts 300°
2026-05-07 11:15 23.79340 58.19381 13944 ft 347 kts 301°
2026-05-07 11:15 23.80571 58.17029 14383 ft 364 kts 301°
2026-05-07 11:16 23.81842 58.14607 15120 ft 370 kts 301°
2026-05-07 11:16 23.83124 58.12160 15986 ft 372 kts 301°
2026-05-07 11:16 23.84411 58.09700 16886 ft 374 kts 301°
2026-05-07 11:16 23.85704 58.07226 17736 ft 377 kts 301°
2026-05-07 11:17 23.87012 58.04721 18501 ft 380 kts 301°
2026-05-07 11:17 23.88325 58.02204 19216 ft 383 kts 301°
2026-05-07 11:17 23.89649 57.99666 19934 ft 385 kts 301°
2026-05-07 11:17 23.90961 57.97147 20638 ft 388 kts 301°
2026-05-07 11:18 23.92301 57.94574 21355 ft 390 kts 300°
2026-05-07 11:18 23.93649 57.91983 22064 ft 393 kts 300°
2026-05-07 11:18 23.95008 57.89371 22747 ft 396 kts 300°
2026-05-07 11:18 23.96379 57.86734 23410 ft 399 kts 300°
2026-05-07 11:19 23.97761 57.84074 23951 ft 402 kts 300°
2026-05-07 11:19 23.99149 57.81402 24481 ft 406 kts 299°
2026-05-07 11:19 24.00529 57.78742 25004 ft 409 kts 299°
2026-05-07 11:19 24.01939 57.76026 25530 ft 411 kts 299°
2026-05-07 11:20 24.03353 57.73298 26063 ft 413 kts 299°
2026-05-07 11:20 24.04777 57.70551 26583 ft 416 kts 298°
2026-05-07 11:20 24.06207 57.67789 27071 ft 419 kts 298°
2026-05-07 11:20 24.07650 57.65001 27567 ft 422 kts 298°
2026-05-07 11:21 24.09109 57.62199 28038 ft 426 kts 300°
2026-05-07 11:21 24.10781 57.59504 28516 ft 430 kts 304°
2026-05-07 11:21 24.12580 57.56871 28999 ft 433 kts 305°
2026-05-07 11:21 24.14428 57.54255 29456 ft 436 kts 306°
2026-05-07 11:22 24.16311 57.51635 29902 ft 439 kts 306°
2026-05-07 11:22 24.18216 57.49004 30300 ft 442 kts 306°
2026-05-07 11:22 24.20131 57.46363 30703 ft 444 kts 306°
2026-05-07 11:22 24.22062 57.43695 31141 ft 445 kts 306°
2026-05-07 11:23 24.23962 57.41065 31569 ft 445 kts 306°
2026-05-07 11:23 24.25874 57.38412 31756 ft 438 kts 306°
2026-05-07 11:23 24.27730 57.35837 31779 ft 420 kts 306°
2026-05-07 11:23 24.29555 57.33296 31777 ft 430 kts 305°
2026-05-07 11:24 24.31430 57.30675 31771 ft 443 kts 305°
2026-05-07 11:24 24.33335 57.28010 31770 ft 455 kts 306°
2026-05-07 11:24 24.35312 57.25243 31773 ft 466 kts 306°
2026-05-07 11:24 24.37338 57.22412 31770 ft 476 kts 306°
2026-05-07 11:25 24.41454 57.16664 31775 ft 479 kts 306°
2026-05-07 11:25 24.45572 57.10907 31774 ft 478 kts 305°
2026-05-07 11:26 24.49436 57.04969 31779 ft 478 kts 302°
2026-05-07 11:26 24.53123 56.98905 31775 ft 477 kts 301°
2026-05-07 11:27 24.56816 56.92823 31773 ft 478 kts 301°
2026-05-07 11:27 24.60530 56.86762 31775 ft 478 kts 301°
2026-05-07 11:28 24.64245 56.80724 31780 ft 476 kts 301°
2026-05-07 11:28 24.67936 56.74724 31774 ft 476 kts 301°
2026-05-07 11:29 24.71646 56.68682 31782 ft 476 kts 301°
2026-05-07 11:29 24.75353 56.62636 31788 ft 476 kts 301°
2026-05-07 11:30 24.79059 56.56585 31797 ft 476 kts 301°
2026-05-07 11:30 24.82755 56.50542 31788 ft 475 kts 301°
2026-05-07 11:31 24.86158 56.44394 31779 ft 471 kts 292°
2026-05-07 11:31 24.88439 56.37648 31777 ft 469 kts 287°
2026-05-07 11:32 24.91102 56.28526 31768 ft 469 kts 285°
2026-05-07 11:33 24.93064 56.21665 31802 ft 469 kts 285°
2026-05-07 11:33 24.95046 56.14797 31795 ft 469 kts 285°
2026-05-07 11:34 24.97127 56.07986 31801 ft 469 kts 291°
2026-05-07 11:34 25.00202 56.01628 31799 ft 471 kts 297°
2026-05-07 11:35 25.03595 55.95439 31802 ft 472 kts 298°
2026-05-07 11:35 25.07021 55.89317 31804 ft 472 kts 298°
2026-05-07 11:36 25.10454 55.83145 31800 ft 472 kts 298°
2026-05-07 11:36 25.13586 55.76815 31793 ft 467 kts 289°
2026-05-07 11:37 25.15415 55.69976 31789 ft 464 kts 282°
2026-05-07 11:37 25.16872 55.63034 31786 ft 463 kts 281°
2026-05-07 11:38 25.18251 55.56121 31782 ft 463 kts 281°
2026-05-07 11:38 25.19649 55.49175 31773 ft 464 kts 281°
2026-05-07 11:39 25.21125 55.42229 31776 ft 465 kts 284°
2026-05-07 11:39 25.23012 55.35387 31774 ft 465 kts 285°
2026-05-07 11:40 25.24977 55.28573 31789 ft 465 kts 285°
2026-05-07 11:40 25.26952 55.21771 31791 ft 464 kts 285°
2026-05-07 11:41 25.28905 55.15010 31787 ft 464 kts 285°
2026-05-07 11:41 25.30810 55.08201 31790 ft 464 kts 284°
2026-05-07 11:42 25.32633 55.01368 31788 ft 464 kts 284°
2026-05-07 11:42 25.34448 54.94520 31789 ft 464 kts 284°
2026-05-07 11:43 25.36270 54.87665 31792 ft 464 kts 284°
2026-05-07 11:43 25.38085 54.80846 31801 ft 463 kts 284°
2026-05-07 11:44 25.39901 54.74017 31798 ft 462 kts 284°
2026-05-07 11:44 25.41713 54.67184 31786 ft 462 kts 284°
2026-05-07 11:45 25.43544 54.60354 31799 ft 463 kts 285°
2026-05-07 11:45 25.45514 54.53603 31787 ft 463 kts 285°
2026-05-07 11:46 25.47540 54.46842 31796 ft 463 kts 285°
2026-05-07 11:46 25.49560 54.40056 31801 ft 463 kts 285°
2026-05-07 11:47 25.51560 54.33282 31795 ft 462 kts 285°
2026-05-07 11:47 25.53544 54.26530 31796 ft 461 kts 285°
2026-05-07 11:48 25.55527 54.19771 31797 ft 461 kts 285°
2026-05-07 11:48 25.57500 54.13041 31802 ft 462 kts 285°
2026-05-07 11:49 25.59482 54.06260 31797 ft 461 kts 285°
2026-05-07 11:49 25.61415 53.99521 31802 ft 461 kts 285°
2026-05-07 11:50 25.63344 53.92737 31805 ft 461 kts 284°
2026-05-07 11:50 25.65266 53.85967 31802 ft 460 kts 284°
2026-05-07 11:51 25.67184 53.79209 31803 ft 459 kts 284°
2026-05-07 11:51 25.69100 53.72445 31803 ft 459 kts 284°
2026-05-07 11:52 25.71004 53.65685 31799 ft 459 kts 284°
2026-05-07 11:52 25.72904 53.58918 31800 ft 459 kts 284°
2026-05-07 11:53 25.74791 53.52182 31799 ft 459 kts 284°
2026-05-07 11:53 25.76690 53.45414 31803 ft 459 kts 284°
2026-05-07 11:54 25.78586 53.38656 31801 ft 458 kts 284°
2026-05-07 11:54 25.80479 53.31892 31800 ft 458 kts 284°
2026-05-07 11:55 25.82355 53.25176 31799 ft 458 kts 284°
2026-05-07 11:55 25.84351 53.18447 31799 ft 461 kts 288°
2026-05-07 11:56 25.86893 53.11891 31803 ft 462 kts 290°
2026-05-07 11:56 25.89539 53.05381 31805 ft 462 kts 290°
2026-05-07 11:57 25.92184 52.98919 31802 ft 462 kts 290°
2026-05-07 11:57 25.94838 52.92403 31804 ft 463 kts 290°
2026-05-07 11:58 25.97483 52.85880 31803 ft 463 kts 290°
2026-05-07 11:58 26.00121 52.79357 31804 ft 462 kts 290°
2026-05-07 11:59 26.02802 52.72847 31810 ft 463 kts 291°
2026-05-07 11:59 26.05673 52.66427 31807 ft 463 kts 292°
2026-05-07 12:00 26.08589 52.60035 31808 ft 463 kts 292°
2026-05-07 12:00 26.11486 52.53639 31810 ft 463 kts 292°
2026-05-07 12:01 26.14360 52.47270 31808 ft 463 kts 292°
2026-05-07 12:01 26.17256 52.40843 31810 ft 463 kts 292°
2026-05-07 12:02 26.20142 52.34429 31812 ft 462 kts 292°
2026-05-07 12:02 26.22998 52.28021 31817 ft 462 kts 291°
2026-05-07 12:03 26.25776 52.21615 31810 ft 462 kts 291°
2026-05-07 12:03 26.28560 52.15150 31813 ft 462 kts 291°
2026-05-07 12:04 26.31344 52.08690 31821 ft 462 kts 291°
2026-05-07 12:04 26.34133 52.02231 31817 ft 462 kts 291°
2026-05-07 12:05 26.36917 51.95764 31815 ft 461 kts 289°
2026-05-07 12:05 26.39277 51.89178 31808 ft 459 kts 287°
2026-05-07 12:06 26.41531 51.82516 31817 ft 459 kts 286°
2026-05-07 12:06 26.43758 51.75843 31820 ft 459 kts 286°
2026-05-07 12:07 26.45985 51.69168 31828 ft 458 kts 286°
2026-05-07 12:07 26.48211 51.62501 31824 ft 458 kts 286°
2026-05-07 12:08 26.50435 51.55823 31820 ft 458 kts 285°
2026-05-07 12:08 26.52651 51.49157 31826 ft 458 kts 285°
2026-05-07 12:09 26.54855 51.42515 31827 ft 458 kts 285°
2026-05-07 12:09 26.57067 51.35841 31826 ft 458 kts 285°
2026-05-07 12:10 26.59275 51.29167 31825 ft 457 kts 285°
2026-05-07 12:10 26.61484 51.22495 31827 ft 458 kts 285°
2026-05-07 12:11 26.63681 51.15855 31824 ft 458 kts 285°
2026-05-07 12:11 26.65887 51.09179 31826 ft 458 kts 285°
2026-05-07 12:12 26.68089 51.02499 31828 ft 458 kts 285°
2026-05-07 12:12 26.70260 50.95804 31831 ft 457 kts 285°
2026-05-07 12:13 26.72398 50.89111 31832 ft 456 kts 284°
2026-05-07 12:13 26.74528 50.82425 31832 ft 456 kts 284°
2026-05-07 12:14 26.76646 50.75778 31832 ft 456 kts 284°
2026-05-07 12:14 26.78783 50.69093 31834 ft 457 kts 286°
2026-05-07 12:15 26.81892 50.62794 31838 ft 469 kts 300°
2026-05-07 12:15 26.85907 50.57003 31837 ft 472 kts 302°
2026-05-07 12:16 26.90087 50.51322 31840 ft 472 kts 303°
2026-05-07 12:16 26.94420 50.45763 31843 ft 475 kts 306°
2026-05-07 12:17 26.98965 50.40419 31846 ft 476 kts 307°
2026-05-07 12:17 27.03553 50.35060 31844 ft 476 kts 307°
2026-05-07 12:18 27.07335 50.30570 31844 ft 475 kts 306°
2026-05-07 12:18 27.11835 50.25144 31848 ft 475 kts 306°
2026-05-07 12:19 27.16498 50.19845 31848 ft 482 kts 313°
2026-05-07 12:19 27.21778 50.15234 31848 ft 484 kts 316°
2026-05-07 12:20 27.27213 50.10742 31849 ft 485 kts 316°
2026-05-07 12:20 27.32690 50.06255 31848 ft 485 kts 316°
2026-05-07 12:21 27.38067 50.01770 31847 ft 484 kts 315°
2026-05-07 12:21 27.43378 49.97117 31848 ft 483 kts 314°
2026-05-07 12:22 27.48659 49.92433 31850 ft 483 kts 314°
2026-05-07 12:22 27.53949 49.87752 31851 ft 482 kts 314°
2026-05-07 12:23 27.59235 49.83085 31851 ft 482 kts 314°
2026-05-07 12:23 27.64519 49.78419 31851 ft 482 kts 314°
2026-05-07 12:24 27.69760 49.73786 31850 ft 482 kts 314°
2026-05-07 12:24 27.75041 49.69111 31848 ft 482 kts 314°
2026-05-07 12:25 27.80316 49.64429 31848 ft 481 kts 314°
2026-05-07 12:25 27.85574 49.59736 31856 ft 481 kts 314°
2026-05-07 12:26 27.90796 49.55067 31847 ft 481 kts 314°
2026-05-07 12:26 27.96050 49.50363 31846 ft 481 kts 314°
2026-05-07 12:27 28.01304 49.45655 31865 ft 481 kts 314°
2026-05-07 12:27 28.06531 49.40931 31847 ft 480 kts 313°
2026-05-07 12:28 28.11699 49.36210 31845 ft 479 kts 313°
2026-05-07 12:28 28.16898 49.31452 31844 ft 479 kts 313°
2026-05-07 12:29 28.22088 49.26702 31849 ft 480 kts 313°
2026-05-07 12:29 28.27291 49.21939 31849 ft 480 kts 313°
2026-05-07 12:30 28.32453 49.17207 31848 ft 480 kts 313°
2026-05-07 12:30 28.37650 49.12439 31850 ft 480 kts 313°
2026-05-07 12:31 28.43109 49.07956 31845 ft 486 kts 317°
2026-05-07 12:31 28.48713 49.03627 31852 ft 487 kts 318°
2026-05-07 12:32 28.54344 48.99325 31851 ft 487 kts 318°
2026-05-07 12:32 28.59934 48.95045 31849 ft 487 kts 318°
2026-05-07 12:33 28.68361 48.88566 31859 ft 487 kts 318°
2026-05-07 12:33 28.73978 48.84236 31866 ft 487 kts 318°
2026-05-07 12:34 28.79594 48.79901 31867 ft 487 kts 318°
2026-05-07 12:34 28.85216 48.75582 31867 ft 487 kts 318°
2026-05-07 12:35 28.90815 48.71296 31877 ft 487 kts 318°
2026-05-07 12:35 28.96435 48.66988 31877 ft 487 kts 318°
2026-05-07 12:36 29.02055 48.62671 31880 ft 487 kts 318°
2026-05-07 12:36 29.07687 48.58337 31885 ft 487 kts 318°
2026-05-07 12:37 29.13304 48.54009 31887 ft 487 kts 318°
2026-05-07 12:37 29.18923 48.49674 31893 ft 487 kts 318°
2026-05-07 12:38 29.24510 48.45359 31900 ft 486 kts 318°
2026-05-07 12:38 29.30124 48.41016 31896 ft 487 kts 318°
2026-05-07 12:39 29.35745 48.36662 31902 ft 487 kts 318°
2026-05-07 12:39 29.41325 48.32334 31911 ft 487 kts 318°
2026-05-07 12:40 29.47067 48.28136 31901 ft 491 kts 322°
2026-05-07 12:40 29.53018 48.24246 31898 ft 493 kts 323°
2026-05-07 12:41 29.59007 48.20390 31894 ft 492 kts 322°
2026-05-07 12:41 29.64927 48.16526 31888 ft 492 kts 322°
2026-05-07 12:42 29.70875 48.12606 31893 ft 492 kts 322°
2026-05-07 12:42 29.76810 48.08679 31892 ft 492 kts 322°
2026-05-07 12:43 29.82741 48.04751 31901 ft 492 kts 322°
2026-05-07 12:43 29.88675 48.00816 31899 ft 492 kts 322°
2026-05-07 12:44 29.94603 47.96881 31906 ft 492 kts 322°
2026-05-07 12:44 30.00466 47.92828 31902 ft 485 kts 316°
2026-05-07 12:45 30.05327 47.87664 31924 ft 471 kts 305°
2026-05-07 12:45 30.09679 47.82020 31909 ft 469 kts 303°
2026-05-07 12:46 30.13902 47.76321 31904 ft 469 kts 302°
2026-05-07 12:46 30.18145 47.70593 31911 ft 469 kts 303°
2026-05-07 12:47 30.22407 47.64870 31908 ft 469 kts 302°
2026-05-07 12:47 30.26675 47.59150 31926 ft 469 kts 302°
2026-05-07 12:48 30.30943 47.53423 31921 ft 470 kts 302°
2026-05-07 12:48 30.35209 47.47688 31922 ft 469 kts 302°
2026-05-07 12:49 30.39442 47.41995 31920 ft 468 kts 302°
2026-05-07 12:49 30.43695 47.36260 31920 ft 469 kts 302°
2026-05-07 12:50 30.47930 47.30538 31918 ft 470 kts 302°
2026-05-07 12:50 30.52190 47.24782 31909 ft 468 kts 302°
2026-05-07 12:51 30.56428 47.19044 31911 ft 468 kts 302°
2026-05-07 12:51 30.60665 47.13298 31911 ft 469 kts 301°
2026-05-07 12:52 30.64911 47.07534 31914 ft 469 kts 301°
2026-05-07 12:52 30.69152 47.01769 31916 ft 469 kts 301°
2026-05-07 12:53 30.73367 46.96031 31932 ft 469 kts 301°
2026-05-07 12:53 30.77613 46.90242 31916 ft 470 kts 301°
2026-05-07 12:54 30.81846 46.84461 31914 ft 469 kts 301°
2026-05-07 12:54 30.86079 46.78673 31916 ft 469 kts 301°
2026-05-07 12:55 30.90308 46.72881 31919 ft 469 kts 301°
2026-05-07 12:55 30.94507 46.67121 31919 ft 469 kts 301°
2026-05-07 12:56 30.98730 46.61320 31919 ft 469 kts 301°
2026-05-07 12:56 31.02950 46.55514 31936 ft 469 kts 301°
2026-05-07 12:57 31.07176 46.49690 31921 ft 471 kts 301°
2026-05-07 12:57 31.11406 46.43852 31921 ft 471 kts 301°
2026-05-07 12:58 31.15636 46.38011 31814 ft 463 kts 301°
2026-05-07 12:58 31.17665 46.35225 31570 ft 448 kts 301°
2026-05-07 12:58 31.19662 46.32485 31358 ft 434 kts 301°
2026-05-07 12:59 31.21589 46.29803 31116 ft 428 kts 300°
2026-05-07 12:59 31.23479 46.27108 30873 ft 429 kts 300°
2026-05-07 12:59 31.25364 46.24389 30658 ft 430 kts 300°
2026-05-07 12:59 31.27244 46.21671 30423 ft 429 kts 300°
2026-05-07 13:00 31.29122 46.18962 30185 ft 428 kts 300°
2026-05-07 13:00 31.31000 46.16260 29943 ft 427 kts 300°
2026-05-07 13:00 31.32872 46.13569 29679 ft 427 kts 300°
2026-05-07 13:00 31.34742 46.10883 29413 ft 425 kts 300°
2026-05-07 13:01 31.36607 46.08205 29144 ft 424 kts 300°
2026-05-07 13:01 31.38466 46.05533 28886 ft 422 kts 300°
2026-05-07 13:01 31.40296 46.02903 28630 ft 420 kts 300°
2026-05-07 13:01 31.42135 46.00258 28357 ft 418 kts 300°
2026-05-07 13:02 31.43968 45.97619 28099 ft 416 kts 300°
2026-05-07 13:02 31.45793 45.94987 27850 ft 415 kts 300°
2026-05-07 13:02 31.47617 45.92356 27588 ft 414 kts 300°
2026-05-07 13:02 31.49429 45.89739 27332 ft 412 kts 300°
2026-05-07 13:03 31.51233 45.87135 27106 ft 410 kts 301°
2026-05-07 13:03 31.53005 45.84574 26856 ft 409 kts 301°
2026-05-07 13:03 31.54816 45.81963 26604 ft 407 kts 301°
2026-05-07 13:03 31.56638 45.79419 26351 ft 407 kts 302°
2026-05-07 13:04 31.57859 45.77754 26197 ft 407 kts 302°
2026-05-07 13:04 31.60324 45.74443 25886 ft 406 kts 303°
2026-05-07 13:04 31.62182 45.71958 25655 ft 404 kts 303°
2026-05-07 13:04 31.64033 45.69481 25418 ft 403 kts 303°
2026-05-07 13:05 31.65872 45.67012 25184 ft 401 kts 303°
2026-05-07 13:05 31.67087 45.65376 25027 ft 400 kts 303°
2026-05-07 13:05 31.68909 45.62917 24795 ft 399 kts 303°
2026-05-07 13:05 31.70728 45.60457 24563 ft 397 kts 303°
2026-05-07 13:06 31.72539 45.58004 24341 ft 396 kts 303°
2026-05-07 13:06 31.74344 45.55558 24109 ft 395 kts 303°
2026-05-07 13:06 31.76142 45.53118 23904 ft 394 kts 303°
2026-05-07 13:06 31.77935 45.50684 23677 ft 393 kts 303°
2026-05-07 13:07 31.79713 45.48257 23425 ft 391 kts 303°
2026-05-07 13:07 31.81466 45.45818 23167 ft 390 kts 302°
2026-05-07 13:07 31.83202 45.43374 22910 ft 388 kts 302°
2026-05-07 13:07 31.84900 45.40971 22646 ft 386 kts 302°
2026-05-07 13:08 31.86613 45.38542 22384 ft 384 kts 302°
2026-05-07 13:08 31.88318 45.36125 22131 ft 383 kts 302°
2026-05-07 13:08 31.90017 45.33716 21870 ft 382 kts 302°
2026-05-07 13:08 31.91712 45.31316 21605 ft 380 kts 302°
2026-05-07 13:09 31.93399 45.28928 21366 ft 379 kts 303°
2026-05-07 13:09 31.95073 45.26560 21109 ft 371 kts 303°
2026-05-07 13:09 31.96711 45.24249 20742 ft 363 kts 303°
2026-05-07 13:09 31.98316 45.21981 20292 ft 358 kts 303°
2026-05-07 13:10 31.99900 45.19735 19838 ft 354 kts 302°
2026-05-07 13:10 32.01465 45.17513 19401 ft 350 kts 302°
2026-05-07 13:10 32.03013 45.15313 18961 ft 347 kts 303°
2026-05-07 13:10 32.04546 45.13132 18524 ft 344 kts 303°
2026-05-07 13:11 32.06062 45.10975 18077 ft 341 kts 303°
2026-05-07 13:11 32.07548 45.08860 17617 ft 337 kts 303°
2026-05-07 13:11 32.09031 45.06751 17203 ft 332 kts 303°
2026-05-07 13:11 32.10497 45.04663 16770 ft 330 kts 302°
2026-05-07 13:12 32.11957 45.02581 16367 ft 328 kts 302°
2026-05-07 13:12 32.13412 45.00506 15953 ft 326 kts 302°
2026-05-07 13:12 32.14856 44.98444 15536 ft 324 kts 302°
2026-05-07 13:12 32.16287 44.96402 15114 ft 321 kts 302°
2026-05-07 13:13 32.17707 44.94373 14704 ft 319 kts 301°
2026-05-07 13:13 32.19114 44.92354 14300 ft 317 kts 301°
2026-05-07 13:13 32.20492 44.90373 13890 ft 315 kts 301°
2026-05-07 13:13 32.21880 44.88376 13450 ft 313 kts 301°
2026-05-07 13:14 32.23256 44.86393 13032 ft 311 kts 302°
2026-05-07 13:14 32.24626 44.84417 12649 ft 310 kts 302°
2026-05-07 13:14 32.25988 44.82451 12241 ft 308 kts 302°
2026-05-07 13:14 32.27346 44.80493 11836 ft 306 kts 302°
2026-05-07 13:15 32.28694 44.78549 11434 ft 304 kts 303°
2026-05-07 13:15 32.30006 44.76664 11323 ft 288 kts 303°
2026-05-07 13:15 32.31250 44.74884 11249 ft 274 kts 303°
2026-05-07 13:15 32.32443 44.73171 11124 ft 265 kts 302°
2026-05-07 13:16 32.33606 44.71488 10816 ft 264 kts 302°
2026-05-07 13:16 32.34752 44.69821 10489 ft 264 kts 303°
2026-05-07 13:16 32.35939 44.68150 10214 ft 269 kts 308°
2026-05-07 13:16 32.37453 44.66744 9995 ft 286 kts 324°
2026-05-07 13:17 32.39249 44.65658 9822 ft 292 kts 330°
2026-05-07 13:17 32.41134 44.64758 9634 ft 292 kts 334°
2026-05-07 13:17 32.43054 44.63966 9461 ft 292 kts 336°
2026-05-07 13:17 32.44983 44.63222 9295 ft 291 kts 337°
2026-05-07 13:18 32.46902 44.62489 9121 ft 288 kts 337°
2026-05-07 13:18 32.48803 44.61753 8943 ft 286 kts 337°
2026-05-07 13:18 32.50680 44.61009 8788 ft 284 kts 336°
2026-05-07 13:18 32.52542 44.60256 8613 ft 282 kts 336°
2026-05-07 13:19 32.54392 44.59497 8446 ft 281 kts 336°
2026-05-07 13:19 32.56206 44.58747 8287 ft 279 kts 336°
2026-05-07 13:19 32.58037 44.57987 8114 ft 278 kts 336°
2026-05-07 13:19 32.59863 44.57230 7949 ft 276 kts 337°
2026-05-07 13:20 32.61675 44.56479 7787 ft 275 kts 337°
2026-05-07 13:20 32.63482 44.55732 7626 ft 274 kts 337°
2026-05-07 13:20 32.65278 44.54989 7465 ft 272 kts 337°
2026-05-07 13:20 32.67064 44.54249 7299 ft 270 kts 337°
2026-05-07 13:21 32.68839 44.53514 7152 ft 269 kts 338°
2026-05-07 13:21 32.70596 44.52785 6987 ft 266 kts 338°
2026-05-07 13:21 32.72338 44.52065 6831 ft 264 kts 338°
2026-05-07 13:21 32.74049 44.51356 6663 ft 263 kts 338°
2026-05-07 13:22 32.75769 44.50641 6515 ft 261 kts 338°
2026-05-07 13:22 32.77478 44.49929 6351 ft 260 kts 338°
2026-05-07 13:22 32.79180 44.49219 6201 ft 259 kts 339°
2026-05-07 13:22 32.80883 44.48507 6047 ft 259 kts 339°
2026-05-07 13:23 32.82581 44.47801 5894 ft 259 kts 339°
2026-05-07 13:23 32.84281 44.47095 5741 ft 258 kts 339°
2026-05-07 13:23 32.85976 44.46391 5574 ft 258 kts 340°
2026-05-07 13:23 32.87669 44.45689 5435 ft 256 kts 340°
2026-05-07 13:24 32.89344 44.44994 5283 ft 254 kts 340°
2026-05-07 13:24 32.90992 44.44307 5137 ft 254 kts 340°
2026-05-07 13:24 32.92663 44.43611 4983 ft 254 kts 341°
2026-05-07 13:24 32.94335 44.42916 4836 ft 255 kts 341°
2026-05-07 13:25 32.96008 44.42219 4679 ft 254 kts 341°
2026-05-07 13:25 32.97678 44.41522 4527 ft 254 kts 341°
2026-05-07 13:25 32.99334 44.40832 4392 ft 248 kts 341°
2026-05-07 13:25 33.00925 44.40170 4270 ft 235 kts 341°
2026-05-07 13:26 33.02426 44.39539 4176 ft 223 kts 340°
2026-05-07 13:26 33.03852 44.38939 4084 ft 212 kts 340°
2026-05-07 13:26 33.05219 44.38368 3997 ft 203 kts 340°
2026-05-07 13:26 33.06535 44.37883 3917 ft 194 kts 342°
2026-05-07 13:27 33.07767 44.37276 3766 ft 191 kts 333°
2026-05-07 13:27 33.08914 44.36509 3640 ft 187 kts 330°
2026-05-07 13:27 33.10014 44.35748 3484 ft 185 kts 331°
2026-05-07 13:27 33.11120 44.34995 3297 ft 182 kts 332°
2026-05-07 13:28 33.12222 44.34242 3011 ft 181 kts 331°
2026-05-07 13:28 33.13294 44.33506 2765 ft 174 kts 331°
2026-05-07 13:28 33.14306 44.32810 2527 ft 161 kts 331°
2026-05-07 13:28 33.15238 44.32172 2334 ft 148 kts 332°
2026-05-07 13:29 33.16096 44.31580 2154 ft 136 kts 331°
2026-05-07 13:29 33.16874 44.31043 1966 ft 123 kts 331°
2026-05-07 13:29 33.17579 44.30558 1824 ft 114 kts 331°
2026-05-07 13:29 33.18268 44.30086 1673 ft 113 kts 331°
2026-05-07 13:30 33.18952 44.29616 1521 ft 113 kts 331°
2026-05-07 13:30 33.19637 44.29145 1381 ft 114 kts 331°
2026-05-07 13:30 33.20311 44.28681 1235 ft 112 kts 331°
2026-05-07 13:30 33.20992 44.28213 1075 ft 113 kts 331°
2026-05-07 13:31 33.21674 44.27743 941 ft 113 kts 331°
2026-05-07 13:31 33.22358 44.27272 802 ft 113 kts 330°
2026-05-07 13:31 33.23039 44.26802 653 ft 114 kts 330°
2026-05-07 13:31 33.23727 44.26329 501 ft 115 kts 329°
2026-05-07 13:32 33.24412 44.25856 358 ft 114 kts 328°
2026-05-07 13:32 33.25094 44.25382 161 ft 112 kts 328°
2026-05-07 13:32 33.25715 44.24944 116 ft 80 kts 330°
2026-05-07 13:32 33.25942 44.24790 115 ft 1 kts 330°
2026-05-07 13:33 33.25961 44.24777 117 ft 5 kts 330°
2026-05-07 13:33 33.26002 44.24750 115 ft 9 kts 330°
2026-05-07 13:33 33.26097 44.24686 116 ft 27 kts 330°
2026-05-07 13:33 33.26298 44.24549 114 ft 35 kts 330°
2026-05-07 13:34 33.26513 44.24397 115 ft 36 kts 329°
2026-05-07 13:34 33.25637 44.23017 117 ft 0 kts 238°